Simultaneous Nadir Overpasses (SNOs) Predictions

Prediction of SNOs between AQUA and NPP Satellite Orbit:

Table of predicted SNOs for the next 14.0 days since TLE Epoch: 2/27/2021
Index Date (AQUA) Time (AQUA) Lat,Lon (AQUA) SZA (AQUA ) Date (NPP) Time (NPP) Lat,Lon (NPP) SZA (NPP ) Distance(km) Time Diff (sec)
1 02/28/2021 14:05:16 -75.66, 26.76 74.21 02/28/2021 14:04:22 -75.66, 26.73 74.16 0.78 54
2 02/28/2021 14:54:19 76.75,-162.08 104.51 02/28/2021 14:54:42 76.76,-162.07 104.49 0.31 23
3 03/03/2021 06:21:33 -76.24, 144.41 75.90 03/03/2021 06:21:04 -76.24, 144.48 75.90 2.06 29
4 03/03/2021 07:10:45 76.89, -45.72 103.32 03/03/2021 07:11:34 76.88, -45.82 103.31 2.73 49
5 03/05/2021 21:53:54 58.56, 69.01 120.89 03/05/2021 21:52:42 58.77, 67.57 121.32 86.97 72
6 03/05/2021 22:37:58 -76.42, -99.12 77.15 03/05/2021 22:37:55 -76.41, -99.14 77.15 0.53 3
7 03/05/2021 23:26:46 78.15, 75.40 100.72 03/05/2021 23:28:00 78.09, 75.53 100.66 7.36 74
8 03/08/2021 14:05:07 75.99,-152.23 102.31 03/08/2021 14:04:12 76.00,-152.13 102.33 2.92 55
9 03/08/2021 14:54:22 -76.59, 17.35 78.41 03/08/2021 14:54:45 -76.58, 17.25 78.41 2.72 23
10 03/11/2021 06:21:32 76.16, -35.81 101.04 03/11/2021 06:21:03 76.17, -35.78 101.06 0.75 29



Historial Predications of SNOs between AQUA and NPP
